Location: Dampvalley
(47.9094°N, 6.1967°E)
Time: 08:05:17
(UTC+00:00)

AO-109 - Pass Details

Date: 03 December 2021
Orbit: 478 x 516 km, 60.7° (Epoch: 21 January)

Event Time Altitude Azimuth Distance (km) Brightness Sun altitude
Exits shadow 05:04:14 41° 347° (NNW) 710 ? -19.6°
Maximum altitude 05:05:12 56° 40° (NE) 577 ? -19.5°
Drops below altitude 10° 05:08:50 10° 120° (ESE) 1,650 ? -18.9°
Sets 05:11:00 0° 124° (SE) 2,527 ? -18.5°
